Theta_e
345 346 345 344 347 348 350 352 352 352 351 351 352 352 351 351 351 351 350 349 349 346 347 346 347 345 347 345 346 345 345 343 342 341 341 341 341 342 341 342 342 343 345 344 345 347 347 346 346 345 346 346 346 342 340 341 341 335 330 335 335 335
347 346 344 344 345 348 350 350 350 350 350 351 352 352 351 350 353 349 349 348 349 349 349 347 349 349 345 344 345 345 345 345 343 342 341 341 341 341 343 341 343 342 344 344 346 346 346 347 346 346 346 346 343 339 341 343 338 336 335 334 336 339
347 347 345 344 344 347 348 349 349 350 350 351 352 351 350 350 349 348 347 347 351 350 350 348 349 348 346 346 345 345 345 344 344 343 342 342 342 343 341 342 341 342 342 343 343 344 345 343 343 346 347 344 340 340 342 342 339 338 336 335 334 342
347 346 345 343 344 345 346 343 348 348 350 350 351 350 350 349 349 349 348 350 352 349 348 351 347 349 351 345 344 345 345 345 345 345 344 342 341 344 343 343 341 342 341 338 338 343 344 343 342 343 341 340 342 342 343 340 334 335 342 339 336 344
347 347 345 342 341 342 343 342 345 347 349 349 350 350 348 350 351 348 350 350 348 351 348 345 348 348 346 346 344 343 343 343 343 343 345 343 341 336 341 333 333 338 336 335 335 339 342 347 344 342 340 341 341 342 340 339 338 336 337 337 339 344
346 346 344 340 340 342 343 341 344 345 346 347 347 346 346 349 350 349 348 347 348 352 351 345 346 346 346 345 346 345 343 344 343 343 344 345 343 340 334 330 329 329 331 332 333 336 340 343 342 342 341 342 342 342 340 338 339 336 341 337 340 345
344 345 344 343 341 340 340 345 343 345 344 344 347 348 347 349 349 354 354 349 350 351 351 347 351 350 348 347 348 348 347 350 346 344 345 342 343 341 339 339 332 331 330 331 333 335 335 337 338 336 339 338 338 337 339 335 335 340 339 340 340 347
343 342 343 345 341 340 342 343 347 346 345 344 343 344 343 345 347 354 350 352 351 352 349 346 346 347 346 345 346 349 348 345 346 344 352 347 342 346 343 345 343 342 338 336 331 329 330 332 335 334 334 335 339 337 340 340 339 336 340 342 338 345
342 345 345 343 342 348 345 345 345 346 350 348 343 345 346 346 346 347 349 351 352 351 346 348 347 348 349 346 347 349 351 350 349 351 352 351 349 347 347 345 345 343 341 340 336 335 329 328 332 339 334 335 336 339 341 341 338 336 335 337 338 341
343 343 344 344 348 343 345 345 343 347 349 349 350 347 344 345 350 347 348 351 351 349 349 350 349 348 347 349 349 348 350 351 352 353 352 351 349 351 351 349 347 346 341 341 339 338 338 334 328 329 335 334 336 337 338 337 338 336 333 335 341 341
343 344 342 342 345 343 346 344 347 344 343 344 348 344 347 350 347 347 347 349 349 351 352 350 349 348 348 348 346 347 348 348 351 351 352 349 349 350 350 348 347 345 343 343 342 340 338 336 335 334 334 336 335 337 337 338 337 337 337 337 339 340
344 347 347 345 343 344 345 345 348 343 343 348 348 346 345 343 345 347 347 349 350 352 350 350 347 349 347 346 345 345 346 347 348 348 348 348 348 349 348 345 348 346 348 346 343 340 338 336 336 336 334 337 337 340 341 339 337 336 336 337 339 341
346 348 346 343 343 344 343 343 344 347 351 346 346 343 344 343 345 348 347 349 350 349 349 349 349 346 346 347 345 344 345 345 345 346 350 352 351 350 348 346 347 348 346 343 342 342 341 340 338 337 338 338 340 339 343 345 338 336 338 337 336 340
345 345 344 341 339 339 340 341 343 345 347 346 345 342 341 345 346 346 348 347 346 349 347 349 348 347 345 344 344 343 345 347 349 351 354 354 350 347 345 346 344 344 344 341 340 341 340 339 339 341 343 342 338 340 344 343 340 341 338 336 335 338
343 338 338 338 338 337 339 341 339 343 347 347 347 344 345 345 344 344 346 346 344 345 344 344 344 349 344 344 342 347 346 348 349 351 348 351 351 346 345 344 344 341 344 340 338 339 339 340 341 340 340 345 341 342 345 341 340 342 339 337 338 337
337 337 336 337 336 339 341 339 340 345 346 346 344 345 345 345 345 345 344 345 345 343 342 342 342 343 344 345 345 343 350 349 349 349 354 353 351 347 346 346 346 344 342 340 341 339 343 337 339 339 341 342 343 342 340 343 342 344 343 340 339 338
335 336 334 337 339 338 341 342 342 343 345 345 344 342 343 344 343 339 342 343 341 343 342 342 341 341 347 350 348 348 347 351 353 351 354 350 347 346 346 345 344 344 344 340 338 337 340 338 338 337 339 339 340 340 341 342 340 341 343 340 340 341
337 338 339 341 339 339 338 341 342 343 343 343 343 343 342 342 341 342 342 340 340 342 342 339 341 349 352 346 348 347 349 351 351 351 348 346 345 343 343 344 342 344 343 342 339 338 336 337 339 337 337 339 339 340 341 341 341 341 342 339 339 337
337 337 339 339 338 338 338 339 340 337 337 340 341 342 342 341 342 342 342 340 339 340 341 346 351 350 351 351 347 344 350 346 345 345 346 343 344 343 343 343 341 341 344 342 339 339 338 338 338 337 337 337 338 338 339 340 341 340 340 340 341 341
339 339 339 337 336 336 338 337 338 339 340 340 341 338 340 339 339 341 341 341 342 348 348 346 346 349 351 348 348 347 344 346 344 344 343 341 341 340 340 340 340 340 339 339 339 339 337 337 336 336 335 337 337 338 339 339 339 339 340 340 340 340
339 340 338 335 333 335 334 333 335 336 337 337 339 341 339 342 341 340 341 343 344 350 349 350 348 349 345 346 345 344 344 345 346 344 344 343 342 342 342 341 340 339 338 336 336 339 339 338 334 331 334 335 336 339 338 339 338 339 339 338 340 339
337 337 338 336 335 336 336 336 334 335 336 338 337 335 336 336 342 344 346 347 345 343 345 346 344 345 345 344 343 345 343 343 343 342 342 340 342 342 340 339 339 336 338 336 334 337 338 336 331 329 327 328 329 334 337 337 338 339 339 339 339 339
337 336 337 338 337 336 337 338 338 338 336 337 340 339 341 340 342 343 343 345 345 345 342 341 341 341 341 341 341 341 341 343 342 342 341 342 340 339 338 338 337 334 333 336 335 338 339 339 330 331 330 327 323 322 331 335 338 336 338 338 338 338
335 337 338 337 337 338 337 338 340 340 338 337 334 338 338 343 341 342 342 342 341 341 340 339 339 338 339 339 339 338 339 339 338 338 337 335 336 335 336 336 335 335 334 330 331 332 336 339 336 331 322 323 323 323 318 326 326 330 335 336 338 339
334 335 337 338 336 337 338 336 338 337 339 336 336 335 335 335 339 339 338 338 338 338 337 337 336 335 335 336 337 337 336 337 337 336 336 335 333 333 333 333 333 333 332 331 329 331 333 335 335 338 331 324 322 319 319 322 325 325 333 332 336 338
335 336 335 337 338 337 335 334 331 330 327 328 329 329 331 333 335 335 334 336 336 335 336 335 333 333 334 334 334 334 334 333 334 333 334 331 329 329 328 329 331 331 330 331 329 328 327 331 332 334 336 332 327 320 321 324 323 316 327 330 332 333
335 337 336 337 338 337 332 334 333 331 330 328 329 332 337 339 336 335 337 335 334 335 333 332 331 331 331 332 333 332 331 330 329 328 330 328 327 326 327 327 329 329 328 329 329 325 324 325 329 331 331 331 331 331 331 325 320 323 319 324 328 329
335 336 336 337 334 334 334 334 331 329 331 331 333 334 335 335 337 335 333 333 333 332 331 330 329 328 328 328 329 329 328 327 326 326 326 325 325 325 326 326 327 328 327 326 326 325 323 325 324 324 327 326 326 328 327 327 327 323 321 317 320 326
335 335 336 334 334 335 334 332 333 331 332 334 334 333 333 333 333 334 331 332 331 330 329 328 326 326 326 326 327 326 326 325 324 324 324 324 324 324 323 324 324 325 324 324 324 326 324 323 324 323 322 322 323 322 322 323 324 325 321 318 318 319
330 331 333 335 334 334 336 336 335 334 332 333 333 333 332 331 331 332 329 329 329 329 327 325 324 324 324 324 324 323 323 323 322 323 324 323 322 322 322 322 324 324 324 322 323 323 322 324 323 322 321 321 319 318 318 318 319 319 320 320 317 317
329 330 331 331 332 332 335 335 334 334 333 331 331 331 329 328 329 329 327 327 326 326 324 322 322 322 322 321 321 321 321 321 322 322 321 321 320 320 321 322 324 322 321 321 321 320 321 321 320 319 319 318 317 317 316 316 316 318 317 316 315 315
328 328 329 329 330 329 330 331 331 330 329 329 329 327 327 325 326 325 326 325 325 323 320 320 320 319 320 319 320 321 322 321 320 320 319 320 320 319 320 321 321 320 320 319 320 319 320 318 318 317 317 317 317 317 317 317 318 319 317 315 315 313
324 326 326 327 327 327 327 327 328 327 327 328 327 327 326 324 324 323 323 322 321 318 318 316 316 316 318 319 321 320 319 318 318 318 318 318 319 319 319 319 319 317 317 316 317 318 318 317 317 315 315 317 316 316 317 318 319 317 317 316 315 311
323 324 324 324 324 324 324 324 325 325 325 324 323 323 322 321 321 321 321 320 319 317 315 315 315 316 318 322 319 318 318 317 317 317 317 317 317 318 318 317 317 315 315 315 317 317 317 316 316 316 316 314 314 315 316 317 316 315 314 313 312 311
321 322 322 322 322 321 321 322 323 323 322 322 321 320 319 319 319 318 318 317 317 317 315 314 315 318 320 320 318 317 316 315 315 315 316 316 316 316 317 316 316 314 315 315 315 316 315 315 314 314 314 313 314 313 314 313 313 313 313 313 312 312
320 320 320 319 319 319 319 320 320 320 320 320 320 320 319 319 318 318 317 316 316 316 316 316 319 319 317 317 316 316 315 314 314 314 314 314 314 314 315 315 315 314 312 315 314 314 313 313 313 313 313 313 312 311 313 312 312 312 312 312 312 312
319 319 318 318 318 317 318 318 318 318 318 318 318 317 317 317 316 317 316 316 315 315 317 318 318 317 316 315 315 314 313 313 312 312 312 312 312 312 313 313 313 312 311 313 314 313 313 312 312 312 311 312 312 312 311 311 311 311 311 311 311 311
Wind_Speed
12 12 11 10 9 9 10 14 13 15 16 16 14 14 13 12 11 10 10 10 10 7 5 6 7 7 9 7 10 9 8 8 7 5 5 5 4 3 3 1 2 2 3 3 3 5 5 6 7 8 9 9 9 6 6 7 8 2 4 8 7 7
10 12 11 8 8 7 8 11 10 11 11 12 12 12 10 8 9 7 10 8 5 4 5 5 5 8 5 7 7 9 8 8 7 7 6 6 5 4 3 3 4 5 5 4 4 3 4 6 9 9 9 9 5 5 6 7 4 6 5 6 6 8
11 11 11 9 7 8 9 7 10 9 8 11 10 10 7 8 7 7 7 6 3 3 4 4 5 7 6 8 8 8 8 8 8 8 7 7 7 6 5 5 6 6 6 6 3 4 5 5 5 10 9 5 4 6 6 7 3 6 3 6 6 12
12 12 10 8 7 7 6 7 7 7 7 7 8 7 6 6 6 6 6 3 3 4 4 2 5 8 9 6 6 9 9 8 8 7 7 5 6 6 7 7 7 7 5 4 4 5 6 6 5 4 4 5 5 7 8 2 4 6 2 7 7 14
11 10 9 7 8 7 6 6 7 6 6 6 6 5 5 5 3 5 4 4 4 2 4 4 3 4 5 6 5 4 4 4 4 5 9 5 5 5 5 5 4 5 4 4 6 6 6 3 5 5 5 5 6 7 4 3 6 4 2 6 7 14
11 10 10 8 7 7 7 4 7 6 5 4 4 4 4 3 2 3 5 3 3 1 2 5 6 5 5 6 5 6 5 5 6 5 8 5 5 5 6 6 6 6 6 6 6 7 8 7 4 5 5 6 7 6 3 3 3 4 2 5 8 14
8 8 9 7 6 7 5 3 7 6 6 5 3 2 2 3 3 2 1 4 1 2 1 2 1 1 2 3 3 2 2 3 4 5 7 7 6 7 6 5 6 7 6 7 7 4 4 3 4 4 4 7 5 5 4 5 5 2 4 6 7 14
6 6 6 6 6 5 4 4 3 6 5 7 6 4 5 4 4 1 3 2 1 2 2 4 4 3 3 4 3 2 1 2 3 3 1 3 3 1 2 2 2 2 3 3 3 4 4 5 4 5 5 5 3 4 3 2 2 4 2 7 6 10
6 4 5 6 4 2 3 4 5 4 1 1 6 4 4 5 3 3 2 2 2 2 3 4 2 2 2 1 1 2 1 2 2 2 2 2 1 2 3 3 4 3 3 3 4 4 3 4 4 3 5 3 4 3 2 1 3 4 4 1 7 7
5 5 6 4 2 4 3 4 4 3 2 2 3 5 6 3 2 3 2 1 3 5 3 2 1 1 1 1 1 1 1 0 1 1 1 0 1 1 1 1 1 2 4 2 2 4 4 6 5 5 4 4 3 1 3 3 3 3 4 5 3 7
6 5 6 4 3 4 4 4 2 3 3 1 4 5 3 1 4 4 5 5 3 2 1 2 1 2 1 1 1 1 2 1 1 2 1 1 1 1 0 1 1 2 3 3 4 3 5 4 5 7 4 2 4 2 2 3 3 4 4 3 3 5
5 5 3 5 6 4 3 3 2 4 3 2 5 5 6 5 5 4 4 2 0 0 1 1 1 0 1 1 1 2 2 2 1 3 3 3 2 1 1 2 1 2 2 3 4 3 4 5 3 4 7 5 4 2 0 3 4 5 5 3 3 3
5 4 4 7 5 6 7 5 2 5 5 6 7 6 3 4 2 1 1 1 1 1 2 1 1 2 1 0 2 3 3 3 4 4 2 1 1 2 1 2 2 2 3 3 4 4 5 5 3 3 3 4 4 3 3 3 5 6 9 9 7 2
5 5 7 11 9 6 4 3 5 5 3 5 7 4 1 3 2 1 1 1 1 0 1 2 1 1 1 1 3 3 4 3 3 1 1 0 0 2 3 2 1 2 2 3 3 4 4 4 4 3 2 3 3 1 0 0 1 4 5 5 6 5
10 10 5 5 6 5 4 8 4 3 1 4 5 4 3 3 2 1 1 1 1 2 1 2 3 1 3 2 5 2 2 1 1 0 1 1 1 3 3 2 1 2 2 3 3 4 4 3 3 3 3 1 2 2 1 4 3 3 4 5 5 7
8 6 5 7 5 6 8 6 3 3 2 4 3 3 2 2 3 2 2 2 1 2 3 1 3 3 6 7 6 4 2 2 3 2 0 1 1 1 2 2 1 2 2 2 2 3 1 3 3 4 4 3 2 3 4 2 1 3 4 2 5 5
6 2 6 6 6 7 4 3 2 1 1 2 3 2 3 2 3 1 2 1 3 3 3 3 3 11 6 2 2 2 4 1 1 1 0 3 2 2 1 1 1 2 2 2 4 4 2 3 4 4 3 3 4 4 4 4 2 2 2 4 6 5
4 4 5 6 7 8 3 4 2 3 2 3 5 4 0 1 2 1 1 1 2 3 5 7 11 5 1 4 2 2 2 1 1 1 3 1 2 4 4 3 3 2 3 2 3 3 3 3 3 3 3 3 4 4 4 4 4 3 3 3 4 5
5 6 6 8 9 8 3 3 4 5 5 3 2 1 0 1 1 1 0 1 3 8 11 5 1 2 2 1 3 2 1 3 4 3 2 2 0 1 2 2 2 4 2 3 3 3 3 3 3 3 4 5 5 6 5 5 4 4 3 4 4 3
6 6 5 5 6 7 3 3 2 2 0 1 2 2 2 2 2 1 2 6 6 5 1 4 1 2 1 3 2 2 4 3 2 3 2 2 2 2 3 3 4 3 4 4 3 3 3 4 4 4 6 6 6 7 6 6 4 4 4 3 4 4
5 6 6 5 3 4 6 3 2 2 1 0 2 1 2 1 4 4 6 6 5 1 2 1 2 4 3 5 4 3 3 2 2 2 1 1 1 2 2 3 4 4 4 4 4 3 4 3 5 5 4 5 5 6 8 6 6 5 3 4 4 4
5 5 7 4 4 4 4 4 2 2 3 2 2 1 0 4 2 2 1 3 5 3 2 2 3 5 6 4 3 3 2 3 3 3 2 3 3 2 2 4 4 5 5 4 4 4 4 2 2 4 7 6 6 5 7 4 2 2 4 5 4 4
4 5 6 4 2 4 5 3 3 1 1 2 1 4 3 3 4 3 3 2 1 3 4 4 5 6 5 6 5 5 4 3 2 2 2 1 3 5 5 4 4 3 5 4 4 3 2 1 3 5 6 6 4 6 2 2 1 3 6 5 4 4
4 3 4 6 6 4 2 2 2 3 1 1 1 4 2 2 5 4 3 3 5 5 6 7 7 7 6 6 6 6 5 5 6 7 7 6 6 6 5 5 6 6 5 7 6 6 6 1 0 3 5 4 5 4 5 1 5 5 6 6 6 6
5 5 6 7 6 3 4 3 3 2 3 4 4 5 3 1 2 4 5 5 5 6 7 7 7 8 8 7 7 7 7 6 6 6 5 6 7 7 7 6 7 7 8 7 8 7 6 8 5 1 2 4 3 2 3 5 9 7 2 4 4 5
5 5 5 5 5 5 4 4 4 4 3 3 2 3 4 3 4 4 5 5 7 7 7 7 7 8 8 7 7 7 7 7 6 7 6 7 7 7 8 9 9 8 9 9 7 7 9 8 10 7 4 4 5 3 6 6 6 5 7 4 6 3
6 5 3 4 5 5 5 2 3 2 1 3 5 3 2 2 4 5 4 6 6 5 7 7 8 8 7 7 6 6 7 8 8 8 7 7 7 7 7 8 8 8 8 8 8 8 9 9 9 7 9 8 5 3 3 5 4 7 8 7 3 6
5 5 4 5 6 5 5 4 5 4 6 7 5 3 4 5 3 5 6 5 4 5 6 8 8 8 8 8 7 6 6 6 6 6 6 6 6 6 6 6 6 7 6 7 8 7 8 8 9 8 9 8 8 7 9 8 5 5 6 8 12 6
7 7 6 7 5 4 3 3 5 6 4 3 4 3 3 4 4 5 6 4 4 5 7 9 8 8 8 8 8 7 7 8 7 6 6 5 5 7 8 7 8 8 7 7 6 6 7 8 8 8 10 9 8 8 8 7 8 8 7 9 8 9
9 7 6 6 7 7 4 4 4 4 4 3 2 4 4 4 4 3 4 4 4 4 6 7 7 8 8 8 8 9 8 8 7 7 7 7 6 7 6 6 6 7 8 8 6 8 7 7 8 8 8 8 9 9 9 8 7 9 9 7 8 10
9 7 7 6 6 7 4 4 4 4 5 5 4 3 5 4 3 2 4 4 4 5 6 6 6 7 7 8 8 7 6 6 6 6 7 6 6 6 5 5 5 7 6 7 7 7 7 8 7 8 9 8 8 8 8 9 9 9 9 9 10 10
10 9 7 7 7 7 5 5 6 5 5 4 4 3 3 3 3 3 3 4 5 6 6 7 7 6 6 6 4 3 3 4 5 5 5 5 5 6 6 6 6 6 6 7 5 5 4 6 7 6 7 6 6 7 7 7 7 8 8 8 9 10
10 9 8 7 6 6 6 5 4 5 4 3 3 3 3 4 3 3 4 5 6 6 6 6 5 5 5 4 2 3 4 6 6 6 6 6 5 6 6 5 6 7 6 7 6 5 5 6 6 7 6 6 6 6 6 6 7 7 7 7 8 8
10 8 7 7 6 6 6 5 5 4 4 5 5 5 5 5 5 4 4 5 6 6 6 5 5 4 2 2 3 5 6 6 6 5 6 5 6 6 5 6 6 7 6 5 5 6 6 6 6 7 6 6 7 7 7 8 9 8 9 9 9 9
11 9 9 8 7 7 6 6 5 5 5 5 5 5 6 5 5 5 5 7 5 5 5 5 3 1 2 3 4 7 6 5 6 5 5 5 6 5 5 6 5 5 5 4 5 6 6 6 7 8 7 7 6 7 7 8 8 9 9 9 9 9
12 11 9 9 8 7 6 6 7 7 6 6 4 4 4 5 5 5 5 5 5 5 4 3 2 2 4 5 6 6 6 6 6 6 5 5 5 4 5 5 4 5 6 5 4 7 5 5 6 6 6 6 6 6 6 7 7 7 8 8 8 8
12 10 9 8 8 8 6 7 7 7 7 6 5 5 5 7 6 5 4 5 5 5 3 2 2 4 6 5 4 5 5 5 6 6 6 6 6 6 5 5 5 6 6 5 5 6 6 6 6 5 5 5 3 4 5 5 5 6 6 6 7 8
Wind_Direction
147 151 145 143 142 144 149 147 142 144 145 145 146 150 154 153 147 147 146 148 147 148 144 137 145 129 140 123 113 125 129 131 132 140 142 155 149 169 191 207 261 274 287 268 250 234 224 224 236 251 260 269 285 296 281 279 270 326 154 113 112 124
150 146 143 143 144 143 147 154 148 149 151 153 156 156 156 154 154 152 155 155 172 156 145 165 148 143 125 127 135 134 135 141 147 151 163 159 170 181 215 234 261 266 270 276 258 235 214 225 232 247 258 270 285 270 269 276 281 288 87 103 112 139
146 141 145 144 145 145 160 163 154 158 158 163 163 157 167 163 161 161 165 172 162 157 160 155 142 157 141 144 137 150 151 158 164 167 167 179 175 186 204 231 251 263 271 274 259 241 218 191 204 230 247 262 257 256 259 260 302 288 103 124 124 148
143 144 144 145 142 151 172 155 155 162 158 167 163 169 178 166 167 165 164 124 196 175 153 125 135 134 136 137 154 163 174 174 174 178 176 180 205 214 203 217 236 248 257 247 233 237 231 182 191 187 204 230 242 248 248 215 250 258 116 128 133 154
146 148 140 137 147 163 172 161 152 154 162 160 166 179 166 161 198 159 154 175 179 177 150 136 146 160 178 156 160 173 171 187 190 185 188 199 183 201 204 206 219 224 235 239 229 231 251 181 178 177 196 218 241 253 242 221 229 278 61 114 140 161
151 149 147 145 160 158 158 175 138 150 154 157 155 175 152 147 207 156 185 165 110 141 200 151 175 180 211 155 169 169 182 195 186 202 178 228 180 183 196 204 197 201 213 229 247 241 220 183 200 203 198 204 228 243 235 282 256 207 115 135 156 163
149 151 145 155 151 135 171 165 138 144 161 153 131 122 121 137 153 187 112 85 177 173 219 98 17 63 37 48 49 18 241 222 185 200 183 206 199 173 205 196 201 201 204 221 235 256 271 233 201 247 214 212 216 244 200 229 290 194 178 147 161 171
139 144 142 125 116 156 167 139 124 142 161 137 140 167 158 171 150 147 104 133 257 208 86 67 34 33 19 34 14 327 333 359 5 14 11 354 14 345 266 319 311 341 307 306 278 261 288 286 199 207 262 303 269 209 261 265 244 303 290 130 163 181
121 122 91 100 141 140 86 91 80 61 56 115 147 172 119 83 98 106 63 110 267 60 61 66 82 37 59 39 346 298 17 351 326 11 347 349 353 359 12 6 349 312 271 288 317 320 286 267 294 199 198 247 291 309 283 317 299 299 314 269 159 180
126 110 96 113 170 95 84 78 104 125 85 6 62 69 78 97 109 117 140 130 68 46 47 104 119 113 135 180 142 297 303 330 284 358 282 331 346 353 351 327 325 323 327 316 309 305 313 304 265 268 201 195 234 283 322 317 299 267 258 283 182 173
121 113 134 153 103 91 95 96 144 118 105 190 73 77 107 99 59 59 48 51 35 86 47 37 185 154 180 68 344 288 281 337 342 288 278 70 353 8 63 259 323 328 305 324 307 298 302 306 320 316 309 201 213 205 240 267 270 294 322 315 22 137
112 108 140 92 80 87 95 129 116 112 124 84 64 59 38 33 39 35 59 0 350 3 151 162 338 280 146 134 238 295 286 271 232 236 248 137 215 296 288 279 287 266 261 278 292 293 288 278 288 305 305 4 360 305 352 308 312 351 330 305 301 175
93 103 96 98 96 61 40 10 19 40 27 70 61 54 38 79 78 43 92 296 0 65 357 261 164 303 34 152 175 242 269 239 212 225 243 283 79 210 208 275 270 327 318 299 291 301 302 313 309 307 331 5 19 329 14 7 32 1 308 321 314 24
116 94 63 57 62 94 165 169 41 31 27 70 89 83 23 40 91 0 84 60 323 139 282 311 314 129 208 231 236 219 215 256 287 42 38 332 99 351 311 302 327 283 297 297 286 282 292 294 289 296 329 321 310 247 132 103 220 176 262 283 296 314
70 65 66 104 109 156 78 40 28 350 43 79 81 130 179 147 148 188 321 133 296 283 169 270 256 129 46 308 270 256 205 235 331 83 180 321 177 194 230 248 280 277 229 244 283 296 291 301 321 305 297 276 279 304 192 200 193 163 217 261 294 292
87 100 98 87 98 57 53 70 331 326 64 104 128 151 178 111 72 11 2 348 227 270 269 296 358 326 209 207 210 210 257 217 158 225 185 158 255 222 216 243 230 253 265 287 263 258 252 270 275 291 296 301 284 257 267 262 213 189 181 185 256 257
88 137 99 85 76 72 60 129 176 244 54 72 117 80 46 47 83 119 283 238 331 314 54 329 199 227 229 329 318 215 186 155 180 146 144 8 330 276 289 349 350 306 304 301 308 318 245 213 255 258 253 259 269 267 255 235 242 228 195 202 209 224
118 78 74 87 78 72 7 358 51 327 16 9 37 47 52 187 138 358 56 296 348 351 277 184 232 178 359 222 207 91 355 151 199 71 50 174 341 6 358 5 342 322 304 308 294 296 307 302 304 289 281 269 256 248 245 251 248 234 211 220 198 238
78 66 59 68 71 77 5 1 12 1 2 350 43 343 282 104 63 110 229 325 197 204 224 212 52 29 121 17 18 341 100 0 40 62 89 92 238 63 23 353 325 317 307 296 298 304 302 298 297 301 299 300 294 280 269 258 241 240 233 230 220 214
93 98 99 87 96 104 98 19 0 207 43 288 190 165 260 198 115 115 240 214 242 237 274 69 333 135 19 52 77 40 52 31 25 55 34 37 11 18 4 343 341 309 326 317 318 324 323 334 313 296 284 269 259 263 267 261 257 264 249 228 236 214
90 91 82 78 66 124 129 122 297 291 214 266 350 329 230 208 102 214 203 220 199 289 42 32 56 41 32 48 40 46 49 28 53 63 28 41 40 20 13 355 327 338 333 348 333 329 318 326 311 293 276 275 268 240 244 239 239 238 245 250 231 223
86 72 95 115 167 143 108 99 32 317 312 140 111 229 28 271 244 156 324 43 7 87 273 61 50 54 40 27 43 38 44 43 12 27 21 21 344 25 20 2 354 348 348 340 321 320 303 15 310 320 324 315 291 263 235 224 242 241 245 249 252 252
79 88 98 125 124 63 53 81 168 207 279 325 190 261 225 181 166 109 74 322 106 40 41 36 49 55 43 34 29 27 19 31 23 358 11 29 15 19 20 6 6 2 334 330 305 294 320 108 307 325 300 282 319 332 341 32 301 264 253 246 243 247
102 80 96 91 60 73 102 22 64 60 57 304 155 257 342 1 47 61 83 62 55 38 38 44 40 46 48 32 32 27 10 25 26 24 14 25 28 19 15 20 15 6 358 349 350 336 330 6 159 344 330 350 300 280 302 72 334 303 250 227 226 236
111 83 70 92 110 91 107 66 41 36 58 13 359 357 3 273 186 100 71 47 45 53 38 36 31 36 33 31 27 30 21 25 40 26 24 36 28 13 13 20 17 13 16 5 353 341 342 353 345 165 289 333 322 320 1 323 339 294 354 358 247 233
105 93 101 96 105 109 99 87 93 59 46 41 353 229 226 141 91 75 67 56 36 35 51 34 30 39 36 27 32 30 24 15 33 21 28 41 29 18 12 16 15 12 10 13 356 353 354 351 347 346 31 148 188 264 308 320 314 314 326 281 314 308
89 95 88 100 113 116 103 108 79 80 233 137 232 191 149 96 84 89 83 69 54 34 41 45 35 30 33 31 26 32 30 24 27 25 24 36 28 24 17 21 12 15 13 5 9 7 359 341 341 358 2 349 352 313 283 316 320 315 317 325 329 316
80 80 92 100 101 86 104 125 144 190 197 199 202 118 79 70 75 76 68 63 66 52 41 47 44 32 27 22 14 26 34 37 34 28 27 30 25 20 18 15 16 19 19 18 12 13 352 348 347 342 350 346 347 343 353 343 337 328 311 312 318 326
97 87 93 102 96 68 124 162 146 188 200 174 141 129 103 75 65 62 73 67 60 64 61 51 42 32 26 23 18 16 23 29 27 20 23 25 23 24 11 10 9 13 13 20 15 3 358 349 350 347 348 348 345 353 346 344 336 345 340 330 316 329
90 78 67 66 114 143 174 157 156 136 125 124 93 68 74 77 67 79 81 72 69 65 67 64 50 36 23 28 24 19 19 27 24 16 17 16 24 23 12 4 10 21 16 11 12 8 358 347 359 351 357 352 352 347 348 345 347 346 340 336 322 325
87 81 69 59 56 52 45 63 55 58 83 83 74 94 103 99 100 82 93 87 79 71 63 58 54 40 30 25 28 19 20 22 29 22 21 17 20 23 9 344 29 32 13 19 24 7 353 12 3 4 6 4 352 350 344 338 340 341 333 329 330 323
85 77 68 61 56 61 55 67 79 80 69 64 82 80 95 103 94 101 117 127 94 76 68 52 45 46 35 35 26 19 28 31 40 32 30 18 24 24 0 358 39 26 24 27 12 3 5 18 10 12 5 351 350 349 341 334 335 333 337 338 333 324
86 80 79 73 62 65 76 68 81 90 89 92 101 101 79 73 64 54 28 52 77 73 61 66 48 43 38 36 23 33 41 30 30 27 26 20 24 27 7 5 45 31 25 22 351 348 26 16 17 14 355 354 357 337 329 337 344 344 342 338 330 323
104 99 91 88 85 77 64 66 65 66 65 60 54 48 44 63 56 47 43 56 65 71 80 66 61 52 23 45 49 49 40 36 33 31 26 24 19 27 15 12 34 32 26 15 347 351 29 18 22 7 1 4 353 338 344 360 357 355 353 345 338 335
115 105 101 99 95 84 66 48 57 63 64 64 62 62 60 50 54 66 57 61 61 75 82 83 85 143 40 45 58 48 47 34 33 31 29 28 26 21 20 27 34 39 23 9 355 7 29 15 22 11 9 6 348 352 360 8 358 358 351 349 336 335
109 107 104 101 91 81 69 65 54 54 61 79 83 90 85 77 70 54 68 81 81 75 80 93 107 96 66 36 40 52 44 44 34 34 30 25 31 22 28 26 24 46 24 10 7 25 25 11 28 12 11 3 4 347 6 6 359 355 352 346 338 336
107 105 107 101 93 89 83 70 65 63 63 63 72 81 95 95 83 73 76 75 79 98 105 89 90 72 67 63 51 51 51 44 41 35 28 22 29 25 26 25 21 40 20 5 17 29 20 8 36 4 12 343 353 347 16 2 358 357 347 339 338 341